Project,Study,Ord_Occ,Event_Num,Cast_ID,Date_Time_UTC,Date_Time_PST,Lat_Dec,Lon_Dec,Sta_ID,Line,Sta,Depth,Pressure,PrQ,Temp1,Temp1Q,Temp2,Temp2Q,TempAve,Salt1,Salt1Q,Salt1_Corr,Salt2,Salt2Q,Salt2_Corr,SaltAve_Corr,Ox1,Ox1Q,Ox1_CruiseCorr,Ox1_StaCorr,Ox2,Ox2Q,Ox2_CruiseCorr,Ox2_StaCorr,OxAve_StaCorr,Ox1uM,Ox1uM_CruiseCorr,Ox1uM_StaCorr,Ox2uM,Ox2uM_CruiseCorr,Ox2uM_StaCorr,OxAveuM_StaCorr,FluorV,FluorQ,EstChl_CruiseCorr,EstChl_StaCorr,ISUSV,ISUSQ,EstNO3_CruiseCorr,EstNO3_StaCorr,SigThetaTS1,SigThetaTS1Q,SigThetaTS2,SigThetaTS2Q,BAT,XMiss,TransQ,pH,pHQ,SPAR,SPARQ,PAR,PARQ,PoT1,PoT2,DynHt,SVA,OxSat1,OxSat2,BTL_Depth,BTL_Temp,SaltB,OxB,OxBuM,Chl-a,Phaeo,NO3,NO2,NH4,PO4,SIL
CalCOFI,2007SR,030,31,2007_030d,19-Jul-2020 04:07:42,18-Jul-2020 20:07:42,33.48438,-117.76656,090.0 028.0,090.0,028.0,1.000,1.008,,18.9397,,18.9380,,18.9389,33.5982,,33.5984,33.5986,,33.6002,33.5993,5.9687,,6.2190,6.0795,4.2535,,6.2132,4.5366,5.3081,260.325,271.2652,265.4955,185.517,471.1730,198.3147,231.9051,0.2047,,1.9878,1.6656,-99.0,,-99.0,-99.0,23.9654,,23.9661,,1.3867,70.7030,,8.184,,1.9043E+00,,1.7492E-01,,18.9395,18.9378,-0.0038,,112.163,79.929,,,,,,,,,,,,
CalCOFI,2007SR,030,31,2007_030d,19-Jul-2020 04:08:36,18-Jul-2020 20:08:36,33.48438,-117.76656,090.0 028.0,090.0,028.0,2.000,2.014,,18.9384,,18.9385,,18.9385,33.5985,,33.5987,33.5991,,33.6007,33.5997,5.9669,,6.2171,6.0777,4.2957,,6.3139,4.6191,5.3484,260.245,271.1817,265.4123,187.356,470.9773,201.9635,233.6879,0.1803,,1.6991,1.4415,-99.0,,-99.0,-99.0,23.9660,,23.9664,,1.3772,70.8718,,8.186,,1.9043E+00,,3.6054E-03,,18.9381,18.9382,0.0058,,112.127,80.723,2,18.880,33.5987,6.268,273.62,1.527,0.070,0.0,0.033,0.14,0.13,3.99
CalCOFI,2007SR,030,31,2007_030d,19-Jul-2020 04:08:36,18-Jul-2020 20:08:36,33.48438,-117.76656,090.0 028.0,090.0,028.0,3.000,3.021,,18.9416,,18.9415,,18.9416,33.5985,,33.5987,33.5992,,33.6008,33.5998,5.9672,,6.2174,6.0780,4.2948,,6.3118,4.6174,5.3477,260.257,271.1942,265.4248,187.318,471.0067,201.8882,233.6565,0.1751,,1.6376,1.3938,-99.0,,-99.0,-99.0,23.9652,,23.9657,,1.3784,70.8508,,8.186,,1.9043E+00,,-8.094E-04,,18.9411,18.9410,0.0093,,112.138,80.711,,,,,,,,,,,,
CalCOFI,2007SR,030,31,2007_030d,19-Jul-2020 04:08:39,18-Jul-2020 20:08:39,33.48438,-117.76656,090.0 028.0,090.0,028.0,4.000,4.029,,18.9415,,18.9422,,18.9419,33.5984,,33.5986,33.5990,,33.6006,33.5996,5.9701,,6.2205,6.0810,4.2994,,6.3228,4.6264,5.3537,260.383,271.3257,265.5557,187.517,471.3148,202.2830,233.9194,0.1759,,1.6470,1.4011,-99.0,,-99.0,-99.0,23.9652,,23.9654,,1.3823,70.7805,,8.186,,1.9043E+00,,2.0201E-05,,18.9408,18.9415,0.0132,,112.192,80.797,,,,,,,,,,,,
CalCOFI,2007SR,030,31,2007_030d,19-Jul-2020 04:08:43,18-Jul-2020 20:08:43,33.48438,-117.76656,090.0 028.0,090.0,028.0,5.000,5.036,,18.9211,,18.9144,,18.9178,33.5975,,33.5977,33.5975,,33.5991,33.5984,5.9898,,6.2410,6.1015,4.3061,,6.3388,4.6395,5.3705,261.243,272.2235,266.4492,187.808,473.4183,202.8604,234.6548,0.1770,,1.6600,1.4112,-99.0,,-99.0,-99.0,23.9697,,23.9714,,1.3739,70.9304,,8.186,,1.9043E+00,,1.0000E-12,,18.9202,18.9135,0.0172,,112.519,80.881,,,,,,,,,,,,
CalCOFI,2007SR,030,31,2007_030d,19-Jul-2020 04:08:46,18-Jul-2020 20:08:46,33.48438,-117.76656,090.0 028.0,090.0,028.0,6.000,6.043,,18.8592,,18.8577,,18.8585,33.5953,,33.5955,33.5960,,33.5976,33.5966,6.0082,,6.2603,6.1206,4.3182,,6.3676,4.6631,5.3919,262.040,273.0555,267.2773,188.332,475.3676,203.9001,235.5887,0.1780,,1.6719,1.4204,-99.0,,-99.0,-99.0,23.9837,,23.9845,,1.3724,70.9568,,8.187,,1.9043E+00,,1.0000E-12,,18.8581,18.8566,0.0211,,112.732,81.021,6,18.711,33.5924,6.264,273.44,1.667,0.092,0.06,0.027,0.13,0.13,3.78
CalCOFI,2007SR,030,31,2007_030d,19-Jul-2020 04:08:48,18-Jul-2020 20:08:48,33.48438,-117.76656,090.0 028.0,090.0,028.0,7.000,7.050,,18.7810,,18.7840,,18.7825,33.5929,,33.5931,33.5937,,33.5953,33.5942,6.0126,,6.2649,6.1252,4.3287,,6.3927,4.6837,5.4045,262.230,273.2538,267.4747,188.786,475.8323,204.8009,236.1378,0.1817,,1.7156,1.4544,-99.0,,-99.0,-99.0,24.0015,,24.0013,,1.3562,71.2455,,8.187,,1.9043E+00,,1.0000E-12,,18.7798,18.7828,0.0251,,112.649,81.104,,,,,,,,,,,,
CalCOFI,2007SR,030,31,2007_030d,19-Jul-2020 04:08:51,18-Jul-2020 20:08:51,33.48438,-117.76656,090.0 028.0,090.0,028.0,8.000,8.057,,18.6726,,18.6706,,18.6716,33.5893,,33.5895,33.5908,,33.5924,33.5910,5.6050,,5.8390,5.7016,4.3827,,6.5216,4.7893,5.2455,244.448,254.6912,248.9993,191.140,432.3401,209.4717,229.2355,0.1795,,1.6896,1.4342,-99.0,,-99.0,-99.0,24.0260,,24.0276,,1.3314,71.6870,,8.187,,1.9043E+00,,1.0000E-12,,18.6712,18.6692,0.0290,,104.801,81.941,,,,,,,,,,,,
CalCOFI,2007SR,030,31,2007_030d,19-Jul-2020 04:08:53,18-Jul-2020 20:08:53,33.48438,-117.76656,090.0 028.0,090.0,028.0,9.000,9.064,,17.5992,,17.6968,,17.6480,33.5240,,33.5242,33.5065,,33.5081,33.5162,5.3135,,5.5344,5.3987,4.5238,,6.8585,5.0652,5.2320,231.687,241.3700,235.7406,197.258,401.1285,221.6108,228.6757,0.2061,,2.0044,1.6784,-99.0,,-99.0,-99.0,24.2350,,24.1989,,1.2064,73.9872,,8.185,,1.9043E+00,,1.0000E-12,,17.5977,17.6953,0.0328,,97.288,82.974,,,,,,,,,,,,
CalCOFI,2007SR,030,31,2007_030d,19-Jul-2020 04:08:56,18-Jul-2020 20:08:56,33.48438,-117.76656,090.0 028.0,090.0,028.0,10.000,10.072,,15.0225,,15.0901,,15.0563,33.5272,,33.5274,33.5077,,33.5093,33.5184,5.5233,,5.7536,5.6167,4.7387,,7.3715,5.4854,5.5511,240.694,250.7724,245.0989,206.507,423.1584,239.9625,242.5307,0.2369,,2.3694,1.9613,-99.0,,-99.0,-99.0,24.8314,,24.8016,,1.0323,77.2556,,8.163,,1.9043E+00,,1.0000E-12,,15.0210,15.0886,0.0362,,96.192,82.628,,,,,,,,,,,,
CalCOFI,2007SR,030,31,2007_030d,19-Jul-2020 04:08:58,18-Jul-2020 20:08:58,33.48438,-117.76656,090.0 028.0,090.0,028.0,11.000,11.079,,14.5353,,14.5602,,14.5478,33.5204,,33.5206,33.5211,,33.5227,33.5217,5.5898,,5.8231,5.6858,4.7696,,7.4453,5.5458,5.6158,243.570,253.7746,248.0870,207.829,430.1926,242.5855,245.3363,0.2419,,2.4287,2.0072,-99.0,,-99.0,-99.0,24.9314,,24.9267,,1.0076,77.7326,,8.142,,1.9043E+00,,1.0000E-12,,14.5336,14.5586,0.0393,,96.404,82.300,11,13.593,33.5465,5.715,249.47,2.791,0.429,0.12,0.032,0.14,0.36,2.78
CalCOFI,2007SR,030,31,2007_030d,19-Jul-2020 04:09:00,18-Jul-2020 20:09:00,33.48438,-117.76656,090.0 028.0,090.0,028.0,12.000,12.086,,14.0676,,14.1139,,14.0908,33.5086,,33.5088,33.5087,,33.5103,33.5096,5.6300,,5.8651,5.7276,4.7841,,7.4799,5.5741,5.6509,245.299,255.5795,249.8835,208.445,434.4215,243.8078,246.8457,0.2474,,2.4940,2.0577,-99.0,,-99.0,-99.0,25.0209,,25.0113,,0.9562,78.7382,,8.131,,1.9043E+00,,1.0000E-12,,14.0659,14.1122,0.0423,,96.180,81.805,,,,,,,,,,,,
CalCOFI,2007SR,030,31,2007_030d,19-Jul-2020 04:09:02,18-Jul-2020 20:09:02,33.48438,-117.76656,090.0 028.0,090.0,028.0,13.000,13.093,,13.9312,,13.9257,,13.9285,33.5169,,33.5171,33.5188,,33.5204,33.5188,5.6157,,5.8501,5.7127,4.7796,,7.4691,5.5653,5.6390,244.667,254.9198,249.2268,208.237,432.8757,243.3951,246.3110,0.2441,,2.4549,2.0274,-99.0,,-99.0,-99.0,25.0557,,25.0584,,0.9455,78.9482,,8.124,,1.9043E+00,,1.0000E-12,,13.9293,13.9238,0.0452,,95.675,81.422,,,,,,,,,,,,
CalCOFI,2007SR,030,31,2007_030d,19-Jul-2020 04:09:04,18-Jul-2020 20:09:04,33.48438,-117.76656,090.0 028.0,090.0,028.0,14.000,14.100,,13.8258,,13.8166,,13.8212,33.5213,,33.5215,33.5249,,33.5265,33.5240,5.6255,,5.8604,5.7229,4.7678,,7.4410,5.5423,5.6326,245.087,255.3582,249.6632,207.719,433.9030,242.3673,246.0153,0.2692,,2.7529,2.2579,-99.0,,-99.0,-99.0,25.0809,,25.0856,,0.9512,78.8361,,8.117,,1.9043E+00,,1.0000E-12,,13.8239,13.8146,0.0481,,95.639,81.045,,,,,,,,,,,,
CalCOFI,2007SR,030,31,2007_030d,19-Jul-2020 04:09:07,18-Jul-2020 20:09:07,33.48438,-117.76656,090.0 028.0,090.0,028.0,15.000,15.108,,13.8246,,13.8216,,13.8231,33.5268,,33.5270,33.5298,,33.5314,33.5292,5.5266,,5.7570,5.6201,4.7512,,7.4013,5.5098,5.5650,240.777,250.8590,245.1851,206.996,423.3614,240.9327,243.0589,0.2687,,2.7469,2.2533,-99.0,,-99.0,-99.0,25.0855,,25.0884,,0.9492,78.8765,,8.112,,1.9043E+00,,1.0000E-12,,13.8224,13.8195,0.0510,,93.959,80.773,,,,,,,,,,,,
CalCOFI,2007SR,030,31,2007_030d,19-Jul-2020 04:09:09,18-Jul-2020 20:09:09,33.48438,-117.76656,090.0 028.0,090.0,028.0,16.000,16.115,,13.7533,,13.7219,,13.7376,33.5310,,33.5312,33.5310,,33.5326,33.5319,5.4006,,5.6254,5.4892,4.7432,,7.3822,5.4942,5.4917,235.286,245.1270,239.4800,206.644,409.9312,240.2343,239.8572,0.3658,,3.9034,3.1451,-99.0,,-99.0,-99.0,25.1034,,25.1098,,0.9897,78.0839,,8.105,,1.9043E+00,,1.0000E-12,,13.7511,13.7197,0.0539,,91.687,80.475,,,,,,,,,,,,
CalCOFI,2007SR,030,31,2007_030d,19-Jul-2020 04:09:11,18-Jul-2020 20:09:11,33.48438,-117.76656,090.0 028.0,090.0,028.0,17.000,17.122,,13.6010,,13.5744,,13.5877,33.5321,,33.5323,33.5360,,33.5376,33.5350,5.3712,,5.5947,5.4586,4.7391,,7.3725,5.4861,5.4724,233.995,243.7793,238.1386,206.457,406.7736,239.8633,239.0010,0.5145,,5.6855,4.5106,-99.0,,-99.0,-99.0,25.1355,,25.1439,,1.0751,76.4327,,8.097,,1.9043E+00,,1.0000E-12,,13.5986,13.5721,0.0568,,90.905,80.165,,,,,,,,,,,,
CalCOFI,2007SR,030,31,2007_030d,19-Jul-2020 04:09:13,18-Jul-2020 20:09:13,33.48438,-117.76656,090.0 028.0,090.0,028.0,18.000,18.129,,13.5523,,13.5474,,13.5499,33.5369,,33.5371,33.5398,,33.5414,33.5393,5.3344,,5.5562,5.4204,4.7188,,7.3240,5.4464,5.4334,232.392,242.1059,236.4731,205.570,402.8528,238.1033,237.2882,0.5092,,5.6217,4.4620,-99.0,,-99.0,-99.0,25.1491,,25.1524,,1.0890,76.1670,,8.089,,1.9043E+00,,1.0000E-12,,13.5498,13.5449,0.0596,,90.196,79.779,,,,,,,,,,,,
CalCOFI,2007SR,030,31,2007_030d,19-Jul-2020 04:09:16,18-Jul-2020 20:09:16,33.48438,-117.76656,090.0 028.0,090.0,028.0,19.000,19.137,,13.5203,,13.5114,,13.5159,33.5383,,33.5385,33.5408,,33.5424,33.5405,5.2421,,5.4598,5.3245,4.6940,,7.2648,5.3980,5.3613,228.366,237.9032,232.2901,204.488,393.0058,235.9564,234.1233,0.5006,,5.5183,4.3830,-99.0,,-99.0,-99.0,25.1567,,25.1605,,1.0853,76.2365,,8.081,,1.9043E+00,,1.0000E-12,,13.5177,13.5088,0.0624,,88.577,79.303,,,,,,,,,,,,
CalCOFI,2007SR,030,31,2007_030d,19-Jul-2020 04:09:19,18-Jul-2020 20:09:19,33.48438,-117.76656,090.0 028.0,090.0,028.0,20.000,20.144,,13.4890,,13.4760,,13.4825,33.5416,,33.5418,33.5447,,33.5463,33.5441,5.0437,,5.2525,5.1183,4.6734,,7.2156,5.3577,5.2380,219.721,228.8787,223.3079,203.590,371.8614,234.1746,228.7413,0.5158,,5.7011,4.5226,-99.0,,-99.0,-99.0,25.1657,,25.1707,,1.0937,76.0763,,8.071,,1.9043E+00,,1.0000E-12,,13.4862,13.4733,0.0652,,85.172,78.900,,,,,,,,,,,,
CalCOFI,2007SR,030,31,2007_030d,19-Jul-2020 04:09:21,18-Jul-2020 20:09:21,33.48438,-117.76656,090.0 028.0,090.0,028.0,21.000,21.151,,13.4391,,13.4214,,13.4303,33.5449,,33.5451,33.5475,,33.5491,33.5471,4.9076,,5.1103,4.9768,4.6577,,7.1781,5.3270,5.1519,213.789,222.6862,217.1446,202.902,357.3526,232.8095,224.9771,0.4756,,5.2180,4.1534,-99.0,,-99.0,-99.0,25.1783,,25.1839,,1.0825,76.2901,,8.060,,1.9043E+00,,1.0000E-12,,13.4362,13.4185,0.0680,,82.791,78.548,21,11.936,33.5612,4.387,191.50,3.757,0.348,2.78,0.077,0.25,0.74,8.13
CalCOFI,2007SR,030,31,2007_030d,19-Jul-2020 04:09:24,18-Jul-2020 20:09:24,33.48438,-117.76656,090.0 028.0,090.0,028.0,22.000,22.158,,13.3385,,13.3239,,13.3312,33.5468,,33.5470,33.5476,,33.5492,33.5481,4.6871,,4.8799,4.7477,4.6477,,7.1543,5.3074,5.0276,204.183,212.6585,207.1640,202.465,333.8576,231.9424,219.5532,0.6122,,6.8637,5.4079,-99.0,,-99.0,-99.0,25.2002,,25.2037,,1.0885,76.1764,,8.045,,1.9043E+00,,1.0000E-12,,13.3355,13.3209,0.0708,,78.911,78.224,,,,,,,,,,,,
CalCOFI,2007SR,030,31,2007_030d,19-Jul-2020 04:09:27,18-Jul-2020 20:09:27,33.48438,-117.76656,090.0 028.0,090.0,028.0,23.000,23.166,,13.1594,,13.1122,,13.1358,33.5400,,33.5402,33.5411,,33.5427,33.5415,4.3793,,4.5582,4.4278,4.6374,,7.1297,5.2873,4.8576,190.765,198.6515,193.2227,202.008,301.0391,231.0357,212.1292,0.7051,,7.9894,6.2610,-99.0,,-99.0,-99.0,25.2308,,25.2411,,1.1262,75.4645,,8.028,,1.9043E+00,,1.0000E-12,,13.1562,13.1091,0.0736,,73.453,77.708,,,,,,,,,,,,
CalCOFI,2007SR,030,31,2007_030d,19-Jul-2020 04:09:29,18-Jul-2020 20:09:29,33.48438,-117.76656,090.0 028.0,090.0,028.0,24.000,24.173,,12.9931,,12.9654,,12.9793,33.5499,,33.5501,33.5529,,33.5545,33.5523,4.2997,,4.4751,4.3451,4.6200,,7.0881,5.2533,4.7992,187.291,195.0250,189.6132,201.242,292.5422,229.5158,209.5645,0.4656,,5.0980,4.0616,-99.0,,-99.0,-99.0,25.2716,,25.2794,,1.0384,77.1366,,8.006,,1.9043E+00,,1.0000E-12,,12.9898,12.9622,0.0764,,71.876,77.188,,,,,,,,,,,,
CalCOFI,2007SR,030,31,2007_030d,19-Jul-2020 04:09:31,18-Jul-2020 20:09:31,33.48438,-117.76656,090.0 028.0,090.0,028.0,25.000,25.180,,12.8408,,12.8338,,12.8373,33.5561,,33.5563,33.5590,,33.5606,33.5585,4.1340,,4.3019,4.1729,4.6030,,7.0475,5.2200,4.6965,180.067,187.4838,182.1075,200.496,274.8733,228.0356,205.0716,0.3681,,3.9308,3.1662,-99.0,,-99.0,-99.0,25.3065,,25.3102,,0.9795,78.2813,,7.988,,1.9043E+00,,1.0000E-12,,12.8375,12.8304,0.0790,,68.892,76.698,,,,,,,,,,,,
CalCOFI,2007SR,030,31,2007_030d,19-Jul-2020 04:09:34,18-Jul-2020 20:09:34,33.48438,-117.76656,090.0 028.0,090.0,028.0,26.000,26.187,,12.5242,,12.4755,,12.4999,33.5520,,33.5522,33.5505,,33.5521,33.5522,4.0353,,4.1988,4.0703,4.5993,,7.0387,5.2128,4.6416,175.758,182.9857,177.6304,200.320,264.3341,227.6864,202.6584,0.3239,,3.4037,2.7603,-99.0,,-99.0,-99.0,25.3650,,25.3733,,0.9164,79.5256,,7.975,,1.9043E+00,,1.0000E-12,,12.5208,12.4721,0.0817,,66.805,76.063,,,,,,,,,,,,
CalCOFI,2007SR,030,31,2007_030d,19-Jul-2020 04:09:36,18-Jul-2020 20:09:36,33.48438,-117.76656,090.0 028.0,090.0,028.0,27.000,27.195,,12.2208,,12.2079,,12.2144,33.5637,,33.5639,33.5663,,33.5679,33.5659,3.9574,,4.1174,3.9894,4.5763,,6.9838,5.1678,4.5786,172.353,179.4312,174.0927,199.307,256.0060,225.6764,199.8846,0.1364,,1.1805,1.0384,-99.0,,-99.0,-99.0,25.4325,,25.4369,,0.8225,81.4187,,7.962,,1.9043E+00,,1.0000E-12,,12.2173,12.2044,0.0843,,65.107,75.269,,,,,,,,,,,,
CalCOFI,2007SR,030,31,2007_030d,19-Jul-2020 04:09:39,18-Jul-2020 20:09:39,33.48438,-117.76656,090.0 028.0,090.0,028.0,28.000,28.202,,12.1299,,12.1122,,12.1211,33.5665,,33.5667,33.5698,,33.5714,33.5691,3.8606,,4.0162,3.8888,4.5395,,6.8959,5.0959,4.4924,168.136,175.0291,169.7112,197.702,245.6918,222.4918,196.1015,0.1110,,0.8809,0.8051,-99.0,,-99.0,-99.0,25.4519,,25.4579,,0.7623,82.6492,,7.950,,1.9043E+00,,1.0000E-12,,12.1262,12.1086,0.0868,,63.395,74.517,,,,,,,,,,,,
CalCOFI,2007SR,030,31,2007_030d,19-Jul-2020 04:09:41,18-Jul-2020 20:09:41,33.48438,-117.76656,090.0 028.0,090.0,028.0,29.000,29.209,,11.9876,,11.9786,,11.9831,33.5779,,33.5781,33.5804,,33.5820,33.5801,3.8510,,4.0062,3.8788,4.5095,,6.8243,5.0372,4.4580,167.712,174.5865,169.2706,196.390,244.6548,219.8886,194.5796,0.1029,,0.7855,0.7307,-99.0,,-99.0,-99.0,25.4877,,25.4913,,0.7631,82.6323,,7.939,,1.9043E+00,,1.0000E-12,,11.9839,11.9749,0.0894,,63.053,73.823,,,,,,,,,,,,
CalCOFI,2007SR,030,31,2007_030d,19-Jul-2020 04:09:43,18-Jul-2020 20:09:43,33.48438,-117.76656,090.0 028.0,090.0,028.0,30.000,30.216,,11.9130,,11.9094,,11.9112,33.5882,,33.5884,33.5909,,33.5925,33.5905,3.7901,,3.9426,3.8155,4.4730,,6.7372,4.9658,4.3907,165.054,171.8118,166.5090,194.796,238.1537,216.7258,191.6174,0.0982,,0.7301,0.6875,-99.0,,-99.0,-99.0,25.5098,,25.5125,,0.7545,82.8103,,7.930,,1.9043E+00,,1.0000E-12,,11.9092,11.9056,0.0919,,61.962,73.124,,,,,,,,,,,,
CalCOFI,2007SR,030,31,2007_030d,19-Jul-2020 04:09:45,18-Jul-2020 20:09:45,33.48438,-117.76656,090.0 028.0,090.0,028.0,31.000,31.224,,11.8444,,11.8391,,11.8418,33.5963,,33.5965,33.5985,,33.6001,33.5983,3.6693,,3.8164,3.6900,4.4394,,6.6570,4.9001,4.2951,159.791,166.3177,161.0407,193.328,225.2811,213.8130,187.4269,0.0951,,0.6936,0.6591,-99.0,,-99.0,-99.0,25.5289,,25.5316,,0.7464,82.9783,,7.922,,1.9043E+00,,1.0000E-12,,11.8404,11.8352,0.0943,,59.904,72.470,31,11.595,33.6207,3.732,162.92,0.342,0.330,13.11,0.102,0.39,1.22,13.02
CalCOFI,2007SR,030,31,2007_030d,19-Jul-2020 04:09:48,18-Jul-2020 20:09:48,33.48438,-117.76656,090.0 028.0,090.0,028.0,32.000,32.231,,11.7200,,11.7169,,11.7185,33.6122,,33.6124,33.6148,,33.6164,33.6144,3.6371,,3.7827,3.6565,4.4069,,6.5794,4.8366,4.2466,158.385,164.8500,159.5799,191.905,221.8423,210.9896,185.2848,0.0894,,0.6265,0.6067,-99.0,,-99.0,-99.0,25.5645,,25.5671,,0.7644,82.6052,,7.911,,1.9043E+00,,1.0000E-12,,11.7159,11.7129,0.0968,,59.229,71.761,,,,,,,,,,,,
CalCOFI,2007SR,030,31,2007_030d,19-Jul-2020 04:09:50,18-Jul-2020 20:09:50,33.48438,-117.76656,090.0 028.0,090.0,028.0,33.000,33.238,,11.6911,,11.6910,,11.6911,33.6194,,33.6196,33.6219,,33.6235,33.6216,3.5889,,3.7323,3.6064,4.3699,,6.4911,4.7642,4.1853,156.283,162.6557,157.3959,190.294,216.7011,207.7931,182.5945,0.0876,,0.6054,0.5902,-99.0,,-99.0,-99.0,25.5754,,25.5774,,0.7837,82.2087,,7.903,,1.9043E+00,,1.0000E-12,,11.6869,11.6868,0.0992,,58.411,71.124,,,,,,,,,,,,
CalCOFI,2007SR,030,31,2007_030d,19-Jul-2020 04:09:52,18-Jul-2020 20:09:52,33.48436,-117.76656,090.0 028.0,090.0,028.0,34.000,34.246,,11.6531,,11.6501,,11.6516,33.6231,,33.6233,33.6254,,33.6270,33.6252,3.5168,,3.6570,3.5315,4.3387,,6.4166,4.7032,4.1174,153.144,159.3789,154.1345,188.931,209.0235,205.0886,179.6116,0.0883,,0.6136,0.5966,-99.0,,-99.0,-99.0,25.5853,,25.5877,,0.7890,82.0980,,7.895,,1.9043E+00,,1.0000E-12,,11.6489,11.6458,0.1017,,57.194,70.556,,,,,,,,,,,,
CalCOFI,2007SR,030,31,2007_030d,19-Jul-2020 04:09:54,18-Jul-2020 20:09:54,33.48438,-117.76656,090.0 028.0,090.0,028.0,35.000,35.253,,11.5782,,11.5759,,11.5771,33.6324,,33.6326,33.6343,,33.6359,33.6343,3.3822,,3.5164,3.3916,4.3094,,6.3466,4.6459,4.0188,147.276,153.2533,148.0377,187.651,194.6712,202.5489,175.2933,0.0865,,0.5924,0.5801,-99.0,,-99.0,-99.0,25.6065,,25.6084,,0.7819,82.2437,,7.887,,1.9043E+00,,1.0000E-12,,11.5738,11.5715,0.1041,,54.920,69.973,,,,,,,,,,,,
CalCOFI,2007SR,030,31,2007_030d,19-Jul-2020 04:09:56,18-Jul-2020 20:09:56,33.48438,-117.76656,090.0 028.0,090.0,028.0,36.000,36.260,,11.4520,,11.4506,,11.4513,33.6489,,33.6491,33.6508,,33.6524,33.6508,3.3349,,3.4669,3.3425,4.2837,,6.2853,4.5957,3.9691,145.214,151.1008,145.8952,186.525,189.6279,200.3147,173.1050,0.0803,,0.5194,0.5232,-99.0,,-99.0,-99.0,25.6425,,25.6443,,0.8010,81.8523,,7.877,,1.9043E+00,,1.0000E-12,,11.4475,11.4461,0.1064,,54.014,69.379,,,,,,,,,,,,
CalCOFI,2007SR,030,31,2007_030d,19-Jul-2020 04:09:59,18-Jul-2020 20:09:59,33.48437,-117.76656,090.0 028.0,090.0,028.0,37.000,37.268,,11.4092,,11.4136,,11.4114,33.6583,,33.6585,33.6603,,33.6619,33.6602,3.3059,,3.4366,3.3123,4.2468,,6.1972,4.5235,3.9179,143.946,149.7771,144.5778,184.918,186.5265,197.1261,170.8520,0.0795,,0.5100,0.5158,-99.0,,-99.0,-99.0,25.6577,,25.6584,,0.8192,81.4807,,7.866,,1.9043E+00,,1.0000E-12,,11.4046,11.4090,0.1088,,53.498,68.732,,,,,,,,,,,,
CalCOFI,2007SR,030,31,2007_030d,19-Jul-2020 04:10:01,18-Jul-2020 20:10:01,33.48436,-117.76656,090.0 028.0,090.0,028.0,38.000,38.275,,11.3988,,11.3999,,11.3994,33.6620,,33.6622,33.6642,,33.6658,33.6640,3.2745,,3.4038,3.2797,4.2040,,6.0950,4.4398,3.8598,142.581,148.3522,143.1596,183.054,183.1879,193.4276,168.2936,0.0824,,0.5442,0.5424,-99.0,,-99.0,-99.0,25.6625,,25.6640,,0.8213,81.4379,,7.858,,1.9043E+00,,1.0000E-12,,11.3941,11.3952,0.1111,,52.980,68.022,,,,,,,,,,,,
CalCOFI,2007SR,030,31,2007_030d,19-Jul-2020 04:10:03,18-Jul-2020 20:10:03,33.48437,-117.76656,090.0 028.0,090.0,028.0,39.000,39.282,,11.3883,,11.3881,,11.3882,33.6660,,33.6662,33.6683,,33.6699,33.6681,3.2772,,3.4066,3.2825,4.1743,,6.0241,4.3818,3.8322,142.698,148.4743,143.2811,181.760,183.4741,190.8601,167.0706,0.0808,,0.5253,0.5278,-99.0,,-99.0,-99.0,25.6675,,25.6693,,0.8060,81.7517,,7.852,,1.9043E+00,,1.0000E-12,,11.3835,11.3832,0.1135,,53.013,67.526,,,,,,,,,,,,
CalCOFI,2007SR,030,31,2007_030d,19-Jul-2020 04:10:05,18-Jul-2020 20:10:05,33.48438,-117.76655,090.0 028.0,090.0,028.0,40.000,40.290,,11.3916,,11.3898,,11.3907,33.6655,,33.6657,33.6681,,33.6697,33.6677,3.2459,,3.3739,3.2500,4.1423,,5.9477,4.3192,3.7846,141.336,147.0526,141.8660,180.367,180.1428,188.0962,164.9811,0.0822,,0.5418,0.5406,-99.0,,-99.0,-99.0,25.6666,,25.6689,,0.8018,81.8367,,7.847,,1.9043E+00,,1.0000E-12,,11.3866,11.3849,0.1158,,52.511,67.011,,,,,,,,,,,,
CalCOFI,2007SR,030,31,2007_030d,19-Jul-2020 04:10:08,18-Jul-2020 20:10:08,33.48436,-117.76656,090.0 028.0,090.0,028.0,41.000,41.297,,11.3683,,11.3695,,11.3689,33.6696,,33.6698,33.6725,,33.6741,33.6720,3.2069,,3.3332,3.2095,4.1032,,5.8544,4.2427,3.7261,139.636,145.2779,140.0997,178.660,175.9849,184.7092,162.4045,0.0811,,0.5289,0.5305,-99.0,,-99.0,-99.0,25.6740,,25.6760,,0.7961,81.9541,,7.841,,1.9043E+00,,1.0000E-12,,11.3632,11.3644,0.1182,,51.855,66.350,41,11.353,33.6709,3.308,144.38,0.275,0.305,15.11,0.063,0.17,1.35,15.23
CalCOFI,2007SR,030,31,2007_030d,19-Jul-2020 04:10:10,18-Jul-2020 20:10:10,33.48436,-117.76656,090.0 028.0,090.0,028.0,42.000,42.304,,11.3505,,11.3515,,11.3510,33.6739,,33.6741,33.6759,,33.6775,33.6758,3.1874,,3.3128,3.1892,4.0733,,5.7830,4.1843,3.6868,138.784,144.3885,139.2145,177.361,173.9010,182.1317,160.6731,0.0841,,0.5642,0.5581,-99.0,,-99.0,-99.0,25.6806,,25.6820,,0.7793,82.2978,,7.837,,1.9043E+00,,1.0000E-12,,11.3452,11.3463,0.1205,,51.521,65.844,,,,,,,,,,,,
CalCOFI,2007SR,030,31,2007_030d,19-Jul-2020 04:10:12,18-Jul-2020 20:10:12,33.48437,-117.76656,090.0 028.0,090.0,028.0,43.000,43.312,,11.3438,,11.3416,,11.3427,33.6747,,33.6749,33.6771,,33.6787,33.6768,3.1797,,3.3048,3.1812,4.0509,,5.7295,4.1405,3.6609,138.449,144.0388,138.8664,176.385,173.0816,180.1952,159.5308,0.1054,,0.8150,0.7537,-99.0,,-99.0,-99.0,25.6825,,25.6847,,0.7719,82.4501,,7.833,,1.9043E+00,,1.0000E-12,,11.3384,11.3363,0.1228,,51.390,65.469,,,,,,,,,,,,
CalCOFI,2007SR,030,31,2007_030d,19-Jul-2020 04:10:14,18-Jul-2020 20:10:14,33.48438,-117.76656,090.0 028.0,090.0,028.0,44.000,44.319,,11.3286,,11.3303,,11.3295,33.6775,,33.6777,33.6796,,33.6812,33.6795,3.1702,,3.2948,3.1713,4.0242,,5.6658,4.0883,3.6298,138.037,143.6087,138.4384,175.218,172.0739,177.8797,158.1591,0.0848,,0.5724,0.5645,-99.0,,-99.0,-99.0,25.6874,,25.6887,,0.7676,82.5390,,7.830,,1.9043E+00,,1.0000E-12,,11.3232,11.3249,0.1251,,51.222,65.022,,,,,,,,,,,,
CalCOFI,2007SR,030,31,2007_030d,19-Jul-2020 04:10:16,18-Jul-2020 20:10:16,33.48436,-117.76656,090.0 028.0,090.0,028.0,45.000,45.326,,11.3158,,11.3169,,11.3164,33.6789,,33.6791,33.6807,,33.6823,33.6807,3.1288,,3.2516,3.1283,3.9889,,5.5815,4.0192,3.5738,136.232,141.7245,136.5630,173.683,167.6592,174.8340,155.6985,0.0752,,0.4594,0.4763,-99.0,,-99.0,-99.0,25.6909,,25.6921,,0.7681,82.5283,,7.826,,1.9043E+00,,1.0000E-12,,11.3102,11.3113,0.1275,,50.539,64.434,,,,,,,,,,,,
CalCOFI,2007SR,030,31,2007_030d,19-Jul-2020 04:10:19,18-Jul-2020 20:10:19,33.48436,-117.76656,090.0 028.0,090.0,028.0,46.000,46.334,,11.2752,,11.2749,,11.2751,33.6836,,33.6838,33.6855,,33.6871,33.6855,3.1244,,3.2470,3.1237,3.9639,,5.5218,3.9704,3.5471,136.039,141.5230,136.3624,172.593,167.1871,172.6712,154.5168,0.0766,,0.4759,0.4892,-99.0,,-99.0,-99.0,25.7019,,25.7035,,0.7684,82.5220,,7.823,,1.9043E+00,,1.0000E-12,,11.2695,11.2693,0.1298,,50.426,63.976,,,,,,,,,,,,
CalCOFI,2007SR,030,31,2007_030d,19-Jul-2020 04:10:20,18-Jul-2020 20:10:20,33.48438,-117.76656,090.0 028.0,090.0,028.0,47.000,47.341,,11.2324,,11.2304,,11.2314,33.6876,,33.6878,33.6895,,33.6911,33.6895,3.1008,,3.2223,3.0992,3.9467,,5.4808,3.9367,3.5180,135.009,140.4478,135.2923,171.840,164.6679,171.1771,153.2347,0.0783,,0.4959,0.5048,-99.0,,-99.0,-99.0,25.7128,,25.7147,,0.7642,82.6086,,7.822,,1.9043E+00,,1.0000E-12,,11.2266,11.2246,0.1321,,50.000,63.638,,,,,,,,,,,,
CalCOFI,2007SR,030,31,2007_030d,19-Jul-2020 04:10:23,18-Jul-2020 20:10:23,33.48438,-117.76656,090.0 028.0,090.0,028.0,48.000,48.348,,11.2035,,11.2110,,11.2073,33.6932,,33.6934,33.6940,,33.6956,33.6945,3.0866,,3.2075,3.0844,3.9145,,5.4039,3.8738,3.4791,134.389,139.8006,134.6481,170.439,163.1515,168.3973,151.5227,0.0676,,0.3701,0.4065,-99.0,,-99.0,-99.0,25.7224,,25.7216,,0.7660,82.5722,,7.817,,1.9043E+00,,1.0000E-12,,11.1976,11.2051,0.1344,,49.742,63.096,,,,,,,,,,,,